COSMOS 1691 DEB, 16268

Orbit data source: Space-Track

COSMOS 1691 DEB, 16268 is space debris in LEO originally from a launch on Wed, 09 Oct 1985 UTC launched from the Plesetsk Missile And Space Complex (PKMTR). Debris objects in space refer to the collection of defunct objects orbiting the Earth. Examples of debris include non-operational satellites, rocket bodies, and fragments generated from explosions, collisions, or faulty payload assembly.

Loading next visibility...
Identifier
16268, 1985-094M
Orbit
LEO
Country
Flag of CISCIS
Related business
Manufacturer
Unknown
Mission
Spacecraft
Bus & Motor
Unknown
Mass
Unknown
Launch date (UTC)
1985-10-09 (41 years ago)
Launch vehicle
Unknown
Launch site
Plesetsk Missile And Space Complex (PKMTR)
Object type
Payload
Rocket body
Debris
Shape & HBR
Unknown shape, 0.1 m
Radar Cross Section
Medium (>0.1 m² and <1 m²)

Expand to show TLE details & history
Last TLE update: 2 days ago

TLE from 2 days ago
0 COSMOS 1691 DEB
1 16268U 85094M   26171.05373723  .00000170  00000-0  94598-3 0  9992
2 16268  82.7099 198.2863 0088166 129.4977 259.5029 12.56628156857188
Epoch: 2026-06-20T01:17Z
TLE epoch observation values (Epoch: 2026-06-20T01:17:22.896Z)
Latitude
27.80099°
Longitude
-85.48441°
Altitude
1,453.305 km
Speed
7.132 km/s
True Right ascension
13h 28m 32s
True Declination
27° 40' 19"
Sunlit
Object was in daylight at epoch
Visualization orbit readout
Latitude
Unknown
Longitude
Unknown
Altitude
Unknown
Speed
Unknown
Apparent Right ascension
Unknown
Apparent Declination
Unknown
Sunlit
N/A
Visualization observer readout
Local Sidereal Time
23:20:38
Azimuth
Unknown
Elevation
Unknown
Doppler factor
Unknown
Orbital elements
Apogee altitude
1,503.095 km
Perigee altitude
1,365.338 km
Semi-major axis
7,812.354 km
Eccentricity
0.00882
Inclination
82.7099°
RAAN
198.2863°
Arg. of periapsis
129.4977°
True anomaly
258.51154°
Mean anomaly
259.5029°
Eccentric anomaly
259.00702°
Mean motion
3.14319 °/min
Orbital period
114.53 mins
BSTAR
0.00094598
Loading maneuver chart data...
Computing Atmospheric mass density...
Loading historical data...
Loading historical data...
Loading historical data...
Loading historical data...
Loading historical data...
Loading historical data...
Loading historical data...

Documentation

Showing up to 5 results
|